Zurück zum Katalog

STARLINK-3518

AktivKommunikationVLEO
NORAD 51732·PAYLOAD·🇺🇸 United States

Gestartet Feb 21, 2022 von Cape Canaveral Space Force Station

Loading…

Nächste Überflüge (nächste 24 Stunden)

TLE

AktuellSource: CelesTrak SupGP

Epoche: Sep 14, 2026, 21:19 UTC

1 51732C 22016U   26257.88868056 -.00019352  00000+0 -57210-3 0  2576
2 51732  53.1588 175.7839 0001409  95.5049 159.7890 15.34381275    15

Verfolge STARLINK-3518 in Echtzeit mit AllMySat

Download on the App Store